Location: Beang
(6.6177°N, 10.9863°W)
Time: 23:23:03
(UTC+00:00)

Meteor PRIRODA - Pass Details

Date: 07 June 2020
Orbit: 489 x 511 km, 97.5° (Epoch: 10 July)

Event Time Altitude Azimuth Distance (km) Brightness Sun altitude
Rises 05:21:13 0° 15° (NNE) 2,561 7.9 -15.9°
Reaches altitude 10° 05:23:18 10° 18° (NNE) 1,678 6.9 -15.5°
Maximum altitude 05:26:53 66° 101° (ESE) 537 3.9 -14.7°
Drops below altitude 10° 05:30:27 10° 184° (S) 1,675 6.0 -13.9°
Enters shadow 05:31:19 - 185° (S) 2,038 6.4 -13.7°
